sat.trackr.live / text

‹ back to catalog

STARLINK-30823

NORAD 58248 · 2023-171U

PAYLOAD ACTIVE UNKNOWN

§ Identity

Operator
Country
US
Launch date
2023-11-08
Launch site
AFETR
Launch vehicle
Mass (kg)
RCS (m²)

Purposes: comms

External: N2YO · Heavens-Above · Gunter

§ Orbital elements

Epoch: 2026-05-25T04:30:18.391104Z

Period
94.27 min
Inclination
43.0037°
Eccentricity
0.0002073
Mean motion
15.27576353 rev/d
Perigee alt
481.6 km
Apogee alt
484.5 km
Semi-major
6,861.2 km
B*
1.1268e-4
RAAN
213.2262°
Arg perigee
269.4116°
Mean anomaly
90.6498°
Rev number
14,143

§ Raw data

STARLINK-308231 58248U 23171U   26145.18771286  .00002839  00000+0  11268-3 0  99912 58248  43.0037 213.2262 0002073 269.4116  90.6498 15.27576353141438

JSON: /api/v1/satellites/58248 · /tle

For live sub-satellite position, see the globe view (requires WebGL).

§ Visibility from observer

Set your observer location to see the next 7 days of passes ≥ 10°. The values pass through the URL so the page stays shareable.

No JS? Fill the form by hand. The geolocation button needs JavaScript.